Regional Weather Roundup
Issued by NWS

Home | Current Version | Previous Version | Text Only | Print | Product List | Glossary On
Versions: 1 2 3 4 5 6 7 8 9 10 11 12 13 14 15 16 17 18 19 20 21 22 23 24 25 26 27 28 29 30 31 32 33 34 35 36 37 38 39 40 41 42 43 44 45 46 47 48 49 50
000
ASUS46 KSEW 011210
RWRWA

WASHINGTON REGIONAL WEATHER ROUNDUP
NATIONAL WEATHER SERVICE SEATTLE WA
500 AM PDT TUE SEP 01 2015

NOTE:"FAIR" INDICATES FEW OR NO CLOUDS BELOW 12,000 FEET WITH NO
SIGNIFICANT WEATHER AND/OR OBSTRUCTIONS TO VISIBILITY.

WAZ505-507>509-011300-
SEATTLE, TACOMA, EVERETT, AND VICINITY

CITY           SKY/WX    TMP DP  RH WIND       PRES   REMARKS
EVERETT        CLOUDY    62  52  69 S18G26    29.87S
6HR MIN TEMP:  61; 6HR MAX TEMP:  62;

BOEING FIELD   LGT RAIN  64  55  72 S12G18    29.87F
6HR MIN TEMP:  64; 6HR MAX TEMP:  67; 6HR PCP:  0.01;

RENTON           N/A    N/A N/A N/A MISG      29.88S
SEATAC AIRPORT CLOUDY    62  54  74 S10       29.89F
6HR MIN TEMP:  61; 6HR MAX TEMP:  63; 6HR PCP: TRACE;

JBLM-MCCHORD   CLOUDY    62  54  75 S8        29.89F
6HR MIN TEMP:  62; 6HR MAX TEMP:  63;

PUYALLUP       CLOUDY    63  55  77 VRB5      29.90S
BREMERTON      CLOUDY    57  57 100 S7        29.91R
6HR MIN TEMP:  57; 6HR MAX TEMP:  61; 6HR PCP:  0.20;

JBLM-FT LEWIS  CLOUDY    62  55  77 S10       29.88F
6HR MIN TEMP:  61; 6HR MAX TEMP:  63;

TACOMA NARROWS CLOUDY    62  54  74 S10       29.89F
6HR MIN TEMP:  61; 6HR MAX TEMP:  63; 6HR PCP: TRACE;

$$

WAZ001-503-506-510-514-515-011300-
NORTH INTERIOR

CITY           SKY/WX    TMP DP  RH WIND       PRES   REMARKS
BELLINGHAM       N/A     60  57  89 S8          N/A
6HR MIN TEMP:  59; 6HR MAX TEMP:  62; 6HR PCP:  0.21;

FRIDAY HARBOR  CLOUDY    57  56  96 S9        29.85S FOG
6HR MIN TEMP:  56; 6HR MAX TEMP:  59;

EASTSOUND      CLOUDY    59  57  94 S10       29.81S
PORT ANGELES   LGT RAIN  56  55  97 NW3       29.86S FOG
6HR MIN TEMP:  56; 6HR MAX TEMP:  60; 6HR PCP:  0.26;

PORT TOWNSEND  CLOUDY    57  57 100 CALM      29.86S
NAS WHIDBEY    CLOUDY    58  57  97 SW9       29.89R
6HR MIN TEMP:  57; 6HR MAX TEMP:  62; 6HR PCP:  0.07;

ARLINGTON      CLOUDY    59  54  82 SW3       29.88R
6HR MIN TEMP:  59; 6HR MAX TEMP:  63; 6HR PCP:  0.05;

BURLINGTON     CLOUDY    59  59 100 S7        29.86R FOG
$$

WAZ020-022-039-040-504-511-512-011300-
SOUTHWEST INTERIOR

CITY           SKY/WX    TMP DP  RH WIND       PRES   REMARKS
SHELTON        CLOUDY    60  57  89 S13       29.85S
6HR MIN TEMP:  59; 6HR MAX TEMP:  62; 6HR PCP: TRACE;

OLYMPIA        CLOUDY    62  54  74 S9        29.89F
6HR MIN TEMP:  61; 6HR MAX TEMP:  62;

CHEHALIS       CLOUDY    63  57  82 S8        29.90F
KELSO          NOT AVBL
VANCOUVER      CLOUDY    64  54  69 CALM      29.94S
6HR MIN TEMP:  63; 6HR MAX TEMP:  66;

SCAPPOOSE, OR  CLOUDY    60  55  83 CALM      29.93F
6HR MIN TEMP:  58; 6HR MAX TEMP:  61;

PORTLAND, OR   CLOUDY    63  55  75 S7        29.95S
6HR MIN TEMP:  63; 6HR MAX TEMP:  66;

$$

WAZ021-516-517-011300-
WASHINGTON COAST

CITY           SKY/WX    TMP DP  RH WIND       PRES   REMARKS
FORKS          CLOUDY    59  58  96 SE3       29.85F
6HR MIN TEMP:  59; 6HR MAX TEMP:  61; 6HR PCP:  0.22;

HOQUIAM        RAIN      61  60  97 S13       29.88S FOG
6HR MIN TEMP:  61; 6HR MAX TEMP:  62; 6HR PCP:  0.06;

ASTORIA, OR    LGT RAIN  63  59  87 S10       29.91S
6HR MIN TEMP:  63; 6HR MAX TEMP:  63; 6HR PCP: TRACE;

$$

WAZ019-023-024-040-518-519-011300-
CASCADE MOUNTAINS AND COLUMBIA GORGE

CITY           SKY/WX    TMP DP  RH WIND       PRES   REMARKS
TROUTDALE, OR  CLOUDY    63  53  70 SE3       29.95S
6HR MIN TEMP:  62; 6HR MAX TEMP:  67;

THE DALLES, OR PTCLDY    62  50  64 W8        29.91S
6HR MIN TEMP:  61; 6HR MAX TEMP:  68;

$$

WAZ026-027-041>044-520-521-011300-
EAST SLOPES

CITY           SKY/WX    TMP DP  RH WIND       PRES   REMARKS
OMAK           CLEAR     57  44  62 S13       29.80R
6HR MIN TEMP:  56; 6HR MAX TEMP:  63;

WENATCHEE      CLEAR     56  45  66 CALM      29.83S
6HR MIN TEMP:  55; 6HR MAX TEMP:  64;

ELLENSBURG     CLEAR     53  43  68 N5        29.87F
6HR MIN TEMP:  53; 6HR MAX TEMP:  60;

YAKIMA         CLEAR     51  42  71 NW6       29.88S
6HR MIN TEMP:  50; 6HR MAX TEMP:  66;

$$

WAZ028-034-035-011300-
COLUMBIA BASIN

CITY           SKY/WX    TMP DP  RH WIND       PRES   REMARKS
EPHRATA        CLEAR     54  44  69 CALM      29.83S
6HR MIN TEMP:  49; 6HR MAX TEMP:  67;

MOSES LAKE     CLEAR     61  45  55 SW16      29.85R
6HR MIN TEMP:  55; 6HR MAX TEMP:  66;

PASCO          PTCLDY    60  49  66 SW8       29.89S
6HR MIN TEMP:  59; 6HR MAX TEMP:  66;

HERMISTON, OR  PTCLDY    58  49  72 S9        29.90F
6HR MIN TEMP:  57; 6HR MAX TEMP:  66;

$$

WAZ036>038-011300-
NORTHEAST WASHINGTON

CITY           SKY/WX    TMP DP  RH WIND       PRES   REMARKS
SPOKANE GEIGER PTCLDY    52  45  77 S10       29.89R
6HR MIN TEMP:  52; 6HR MAX TEMP:  61;

SPOKANE FELTS  PTCLDY    56  45  66 VRB6      29.90R
6HR MIN TEMP:  56; 6HR MAX TEMP:  63;

FAIRCHILD AFB  PTCLDY    50  45  81 S12       29.89R
6HR MIN TEMP:  50; 6HR MAX TEMP:  59;

COEURDALENE,ID PTCLDY    55  45  67 S7        29.90S
6HR MIN TEMP:  54; 6HR MAX TEMP:  61;

DEER PARK      CLOUDY    54  46  74 S9        29.89R
6HR MIN TEMP:  52; 6HR MAX TEMP:  61;

$$

WAZ029>033-011300-
SOUTHEAST WASHINGTON

CITY           SKY/WX    TMP DP  RH WIND       PRES   REMARKS
PULLMAN        MOCLDY    58  44  60 W15G23    29.94S
6HR MIN TEMP:  53; 6HR MAX TEMP:  59;

LEWISTON, ID   CLOUDY    57  43  59 CALM      29.90S
6HR MIN TEMP:  56; 6HR MAX TEMP:  65;

WALLA WALLA    PTCLDY    62  47  57 S12       29.93R
6HR MIN TEMP:  62; 6HR MAX TEMP:  66;

PENDLETON, OR  MOCLDY    53  45  74 S8        29.94R
6HR MIN TEMP:  53; 6HR MAX TEMP:  63;

$$



USA.gov is the U.S. government's official web portal to all federal, state and local government web resources and services.